Regional Weather Roundup
Issued by NWS

Home | Current Version | Previous Version | Text Only | Print | Product List | Glossary On
Versions: 1 2 3 4 5 6 7 8 9 10 11 12 13 14 15 16 17 18 19 20 21 22 23 24 25 26 27 28 29 30 31 32 33 34 35 36 37 38 39 40 41 42 43 44 45 46 47 48 49 50
000
ASUS43 KLSX 241510
RWRMO

WEATHER SUMMARY FOR MISSOURI
NATIONAL WEATHER SERVICE SPRINGFIELD MO
1000 AM CDT TUE APR 24 2018

NOTE: "FAIR" INDICATES FEW OR NO CLOUDS BELOW 12,000 FEET WITH NO
       SIGNIFICANT WEATHER AND/OR OBSTRUCTIONS TO VISIBILITY.
       CURRENT SKY AND/OR WEATHER CONDITIONS ARE NOT AVAILABLE FOR
       CHILLICOTHE AND FARMINGTON.

MOZ001>031-035>038-043-044-053-054-241600-
...NORTHERN AND WESTERN MISSOURI...

CITY           SKY/WX    TMP DP  RH WIND       PRES   REMARKS
KANSAS CTY INT MOSUNNY   65  35  33 N6        30.13S
KANSAS C DTWN  SUNNY     63  37  38 CALM      30.12S
LEE`S SUMMIT   SUNNY     64  36  35 N6        30.12S
ST JOSEPH      SUNNY     63  36  36 CALM      30.14S
CHILLICOTHE      N/A     61  37  41 VRB5      30.12S
KIRKSVILLE     SUNNY     64  50  60 NE8       30.09S

$$
MOZ066>068-077>081-088>096-101>105-241600-
...SOUTHWEST MISSOURI...

CITY           SKY/WX    TMP DP  RH WIND       PRES   REMARKS
SPRINGFIELD    SUNNY     61  50  67 VRB6      30.08S
JOPLIN         SUNNY     64  43  46 N6        30.12S
BRANSON        SUNNY     63  43  48 NW9       30.09R

$$
MOZ032>034-039>042-045>050-055>058-069>072-241600-
...CENTRAL MISSOURI...

CITY           SKY/WX    TMP DP  RH WIND       PRES   REMARKS
COLUMBIA       MOSUNNY   63  50  62 NE15      30.06F
JEFFERSON CITY MOSUNNY   63  50  62 N12G23    30.06F
ROLLA          CLOUDY    58  50  75 N10       30.05F
SEDALIA        SUNNY     61  50  67 N6        30.10S
WHITEMAN AFB   MOSUNNY   60  40  47 N5        30.07
WARRENSBURG    SUNNY     61  36  39 N5        30.11S
OSAGE BEACH    MOSUNNY   61  52  72 N8        30.08F

$$
MOZ051-052-059>065-241600-
...EAST CENTRAL MISSOURI...

CITY           SKY/WX    TMP DP  RH WIND       PRES   REMARKS
ST LOUIS INTL  CLOUDY    58  53  84 N10       30.03S
SPIRIT OF STL  CLOUDY    59  54  83 N10       30.03S
ST CHARLES     CLOUDY    59  53  80 N9G22     30.03S

$$
MOZ072>076-082>087-097>100-106>115-241600-
...SOUTH CENTRAL AND SOUTHEAST MISSOURI...

CITY           SKY/WX    TMP DP  RH WIND       PRES   REMARKS
CAPE GIRARDEAU CLOUDY    58  54  86 N13       29.99R
FARMINGTON     CLOUDY    57  53  86 NW9       30.02R
POPLAR BLUFF   CLOUDY    59  55  87 N10       30.00R
WEST PLAINS    CLOUDY    59  52  77 N14       30.05S

$$



USA.gov is the U.S. government's official web portal to all federal, state and local government web resources and services.